Showing default

IRIDIUM 171, 43929

Orbit data source: Space-Track

IRIDIUM 171, 43929 is a payload satellite owned by Iridium (US) in LEO that was launched on Fri, 11 Jan 2019 UTC via an FALCON 9 launch vehicle from the Air Force Western Test Range (AFWTR). Payload-class satellites include a variety of spacecraft equipped with specific instruments for various scientific and technological missions. These include communications satellites like Starlink; space stations such as the ISS; scientific satellites like the Hubble; Earth observation satellites from companies like Planet Labs, Umbra, and HawkEye 360; GPS; miniature CubeSats for education and research; and military/defense satellites.

Loading next visibility...
Identifier
43929, 2019-002H
Orbit
LEO
Country
Flag of USUS
Related business
Manufacturer
NGIS SSG Gilbert
Mission
Operational Commercial Communications
Bus & Motor
ELITEBUS, Unknown motor
Mass
860 kg wet, 700 kg dry
Launch date (UTC)
2019-01-11 (7 years ago)
Launch vehicle
FALCON 9
Launch site
Air Force Western Test Range (AFWTR)
Object type
Payload
Rocket body
Debris
Shape & HBR
Trap Box + 2 Pan, 4.8 m
Radar Cross Section
10.154 m², Large (>1 m²)

Expand to show TLE details & history
Last TLE update: 9 hours ago

TLE from 9 hours ago
0 IRIDIUM 171
1 43929U 19002H   26125.39322853  .00000046  00000-0  95135-5 0  9998
2 43929  86.4013  11.7597 0002234  82.2671 277.8778 14.34217918382827
Epoch: 2026-05-05T09:26Z
TLE epoch observation values (Epoch: 2026-05-05T09:26:14.944Z)
Latitude
-0.0001°
Longitude
6.92871°
Altitude
780.499 km
Speed
7.464 km/s
True Right ascension
00h 47m 02s
True Declination
0° 00' 00"
Sunlit
Object was in daylight at epoch
Visualization orbit readout
Latitude
Unknown
Longitude
Unknown
Altitude
Unknown
Speed
Unknown
Apparent Right ascension
Unknown
Apparent Declination
Unknown
Sunlit
N/A
Visualization observer readout
Local Sidereal Time
02:37:32
Azimuth
Unknown
Elevation
Unknown
Doppler factor
Unknown
Orbital elements
Apogee altitude
776.229 km
Perigee altitude
773.033 km
Semi-major axis
7,152.768 km
Eccentricity
0.00022
Inclination
86.4013°
RAAN
11.7597°
Arg. of periapsis
82.2671°
True anomaly
277.85244°
Mean anomaly
277.8778°
Eccentric anomaly
277.86512°
Mean motion
3.58783 °/min
Orbital period
100.34 mins
BSTAR
0.0000095135
Loading maneuver chart data...
Computing Atmospheric mass density...
Loading historical data...
Loading historical data...
Loading historical data...
Loading historical data...
Loading historical data...
Loading historical data...
Loading historical data...

Documentation

Showing up to 5 results
|